• In Italy
  • List of Countries
  • For 7 days
  • Water Temperature
  • Satellite Maps
  • Weather Map
  • Weather Widgets
  • user-avatar
    Login

    Hourly Weather Kipungo

    Today, 17 January, Wednesday

    Time Temperature Precipitation Wind Pressure Humidity
    00:00 +21°C° 0.1 mm 1 mps 652 mmHg 80%
    01:00 +21°C° 0 mm 1 mps 653 mmHg 85%
    02:00 +20°C° 0.6 mm 1 mps 652 mmHg 88%
    03:00 +20°C° 0.6 mm 1 mps 652 mmHg 90%
    04:00 +20°C° 0.6 mm 1 mps 652 mmHg 92%
    05:00 +20°C° 0.2 mm 1 mps 652 mmHg 91%
    06:00 +21°C° 0.2 mm 1 mps 653 mmHg 90%
    07:00 +22°C° 0 mm 1 mps 653 mmHg 84%
    08:00 +24°C° 0 mm 1 mps 654 mmHg 74%
    09:00 +26°C° 0 mm 1 mps 654 mmHg 63%
    10:00 +28°C° 0 mm 1 mps 655 mmHg 53%
    11:00 +30°C° 0 mm 1 mps 655 mmHg 48%
    12:00 +32°C° 0 mm 1 mps 655 mmHg 44%
    13:00 +33°C° 0 mm 1 mps 654 mmHg 39%
    14:00 +31°C° 0.5 mm 1 mps 654 mmHg 48%
    15:00 +29°C° 0.5 mm 2 mps 653 mmHg 57%
    16:00 +26°C° 0.5 mm 2 mps 652 mmHg 65%
    17:00 +25°C° 2.4 mm 3 mps 651 mmHg 72%
    18:00 +24°C° 2.4 mm 3 mps 651 mmHg 78%
    19:00 +21°C° 2.4 mm 3 mps 651 mmHg 84%
    20:00 +21°C° 4.6 mm 3 mps 652 mmHg 87%
    21:00 +21°C° 4.6 mm 2 mps 653 mmHg 90%
    22:00 +20°C° 4.6 mm 2 mps 653 mmHg 93%
    23:00 +20°C° 2.3 mm 2 mps 653 mmHg 93%

    Tomorrow, 18 January, Thursday

    Time Temperature Precipitation Wind Pressure Humidity
    00:00 +20°C° 2.3 mm 2 mps 653 mmHg 92%
    01:00 +20°C° 2.3 mm 2 mps 653 mmHg 92%
    02:00 +20°C° 0.2 mm 2 mps 652 mmHg 92%
    03:00 +21°C° 0.2 mm 1 mps 652 mmHg 92%
    04:00 +21°C° 0.2 mm 1 mps 652 mmHg 92%
    05:00 +21°C° 0.1 mm 1 mps 652 mmHg 91%
    06:00 +21°C° 0.1 mm 1 mps 652 mmHg 90%
    07:00 +21°C° 0.1 mm 1 mps 653 mmHg 89%
    08:00 +23°C° 0.4 mm 1 mps 653 mmHg 83%
    09:00 +24°C° 0.4 mm 1 mps 653 mmHg 78%
    10:00 +25°C° 0.4 mm 1 mps 653 mmHg 72%
    11:00 +26°C° 0.6 mm 1 mps 653 mmHg 67%
    12:00 +27°C° 0.6 mm 1 mps 653 mmHg 62%
    13:00 +29°C° 0.6 mm 1 mps 653 mmHg 57%
    14:00 +28°C° 1 mm 1 mps 652 mmHg 60%
    15:00 +27°C° 1 mm 1 mps 652 mmHg 63%
    16:00 +27°C° 1 mm 2 mps 651 mmHg 66%
    17:00 +25°C° 2.1 mm 2 mps 651 mmHg 74%
    18:00 +23°C° 2.1 mm 2 mps 651 mmHg 81%
    19:00 +21°C° 2.1 mm 2 mps 651 mmHg 89%
    20:00 +20°C° 4 mm 2 mps 652 mmHg 91%
    21:00 +21°C° 4 mm 1 mps 652 mmHg 92%
    22:00 +21°C° 4 mm 1 mps 653 mmHg 94%
    23:00 +21°C° 1.7 mm 1 mps 653 mmHg 94%

    Day after tomorrow, 19 January, Friday

    Time Temperature Precipitation Wind Pressure Humidity
    00:00 +20°C° 1.7 mm 1 mps 652 mmHg 94%
    01:00 +19°C° 1.7 mm 2 mps 652 mmHg 93%
    02:00 +20°C° 0.2 mm 1 mps 652 mmHg 93%
    03:00 +20°C° 0.2 mm 1 mps 651 mmHg 94%
    04:00 +20°C° 0.2 mm 1 mps 651 mmHg 94%
    05:00 +20°C° 0.3 mm 1 mps 651 mmHg 93%
    06:00 +20°C° 0.3 mm 1 mps 652 mmHg 93%
    07:00 +20°C° 0.3 mm 1 mps 652 mmHg 92%
    08:00 +22°C° 0.5 mm 1 mps 653 mmHg 85%
    09:00 +24°C° 0.5 mm 1 mps 653 mmHg 79%
    10:00 +26°C° 0.5 mm 1 mps 654 mmHg 73%
    11:00 +26°C° 0.7 mm 2 mps 653 mmHg 70%
    12:00 +26°C° 0.7 mm 2 mps 653 mmHg 68%
    13:00 +27°C° 0.7 mm 3 mps 652 mmHg 66%
    14:00 +26°C° 0.9 mm 2 mps 652 mmHg 68%
    15:00 +26°C° 0.9 mm 2 mps 651 mmHg 70%
    16:00 +25°C° 0.9 mm 2 mps 651 mmHg 72%
    17:00 +24°C° 0.4 mm 2 mps 651 mmHg 77%
    18:00 +23°C° 0.4 mm 1 mps 651 mmHg 82%
    19:00 +22°C° 0.4 mm 1 mps 651 mmHg 87%
    20:00 +21°C° 0 mm 1 mps 651 mmHg 89%
    21:00 +21°C° 0 mm 1 mps 652 mmHg 90%
    22:00 +19°C° 0 mm 2 mps 652 mmHg 91%
    23:00 +19°C° 0 mm 2 mps 652 mmHg 93%

    20 January, Saturday

    Time Temperature Precipitation Wind Pressure Humidity
    00:00 +20°C° 0 mm 1 mps 652 mmHg 94%
    01:00 +20°C° 0 mm 1 mps 651 mmHg 95%
    02:00 +19°C° 0 mm 1 mps 651 mmHg 96%
    03:00 +19°C° 0 mm 1 mps 651 mmHg 96%
    04:00 +19°C° 0 mm 1 mps 651 mmHg 96%
    05:00 +19°C° 0 mm 1 mps 651 mmHg 95%
    06:00 +20°C° 0 mm 1 mps 652 mmHg 94%
    07:00 +20°C° 0 mm 1 mps 652 mmHg 92%
    08:00 +22°C° 0 mm 1 mps 653 mmHg 85%
    09:00 +24°C° 0 mm 1 mps 653 mmHg 77%
    10:00 +25°C° 0 mm 1 mps 654 mmHg 69%
    11:00 +26°C° 0.9 mm 1 mps 654 mmHg 68%
    12:00 +27°C° 0.9 mm 1 mps 653 mmHg 67%
    13:00 +27°C° 0.9 mm 1 mps 653 mmHg 66%
    14:00 +26°C° 1.5 mm 1 mps 652 mmHg 70%
    15:00 +26°C° 1.5 mm 1 mps 652 mmHg 73%
    16:00 +25°C° 1.5 mm 2 mps 651 mmHg 76%
    17:00 +23°C° 0.5 mm 2 mps 651 mmHg 81%
    18:00 +21°C° 0.5 mm 2 mps 651 mmHg 86%
    19:00 +20°C° 0.5 mm 2 mps 652 mmHg 91%
    20:00 +19°C° 0.1 mm 2 mps 652 mmHg 91%
    21:00 +20°C° 0.1 mm 1 mps 652 mmHg 92%
    22:00 +19°C° 0.1 mm 1 mps 652 mmHg 92%
    23:00 +19°C° 0 mm 1 mps 652 mmHg 93%

    21 January, Sunday

    Time Temperature Precipitation Wind Pressure Humidity
    00:00 +19°C° 0 mm 1 mps 651 mmHg 93%
    01:00 +19°C° 0 mm 1 mps 651 mmHg 94%
    02:00 +19°C° 0 mm 1 mps 651 mmHg 94%
    03:00 +19°C° 0 mm 1 mps 651 mmHg 95%
    04:00 +19°C° 0 mm 1 mps 651 mmHg 95%
    05:00 +19°C° 0.1 mm 1 mps 651 mmHg 94%
    06:00 +19°C° 0.1 mm 1 mps 652 mmHg 93%
    07:00 +18°C° 0.1 mm 0 mps 653 mmHg 92%
    08:00 +21°C° 0.1 mm 1 mps 653 mmHg 87%
    09:00 +22°C° 0.1 mm 1 mps 653 mmHg 82%
    10:00 +23°C° 0.1 mm 1 mps 654 mmHg 77%
    11:00 +25°C° 0.2 mm 2 mps 653 mmHg 71%
    12:00 +26°C° 0.2 mm 2 mps 653 mmHg 65%
    13:00 +28°C° 0.2 mm 2 mps 653 mmHg 59%
    14:00 +27°C° 0.9 mm 2 mps 652 mmHg 62%
    15:00 +27°C° 0.9 mm 3 mps 652 mmHg 66%
    16:00 +26°C° 0.9 mm 3 mps 651 mmHg 69%
    17:00 +24°C° 1 mm 3 mps 651 mmHg 75%
    18:00 +23°C° 1 mm 2 mps 652 mmHg 82%
    19:00 +20°C° 1 mm 2 mps 652 mmHg 88%
    20:00 +20°C° 0 mm 2 mps 652 mmHg 89%
    21:00 +19°C° 0 mm 2 mps 652 mmHg 90%
    22:00 +19°C° 0 mm 2 mps 653 mmHg 91%
    23:00 +19°C° 0 mm 2 mps 652 mmHg 91%

    22 January, Monday

    Time Temperature Precipitation Wind Pressure Humidity
    00:00 +19°C° 0 mm 2 mps 652 mmHg 92%
    01:00 +18°C° 0 mm 2 mps 652 mmHg 93%
    02:00 +19°C° 0.1 mm 1 mps 652 mmHg 94%
    03:00 +19°C° 0.1 mm 1 mps 652 mmHg 94%
    04:00 +19°C° 0.1 mm 1 mps 652 mmHg 95%
    05:00 +19°C° 0.1 mm 1 mps 652 mmHg 93%
    06:00 +20°C° 0.1 mm 1 mps 653 mmHg 92%
    07:00 +20°C° 0.1 mm 1 mps 653 mmHg 90%
    08:00 +22°C° 0.1 mm 1 mps 654 mmHg 80%
    09:00 +25°C° 0.1 mm 1 mps 654 mmHg 70%
    10:00 +27°C° 0.1 mm 1 mps 655 mmHg 60%
    11:00 +28°C° 0.4 mm 1 mps 654 mmHg 58%
    12:00 +28°C° 0.4 mm 2 mps 654 mmHg 56%
    13:00 +29°C° 0.4 mm 2 mps 653 mmHg 55%
    14:00 +28°C° 0.7 mm 2 mps 652 mmHg 57%
    15:00 +28°C° 0.7 mm 2 mps 652 mmHg 60%
    16:00 +27°C° 0.7 mm 2 mps 651 mmHg 63%
    17:00 +25°C° 0.7 mm 2 mps 651 mmHg 70%
    18:00 +24°C° 0.7 mm 2 mps 651 mmHg 77%
    19:00 +21°C° 0.7 mm 2 mps 651 mmHg 85%
    20:00 +20°C° 0.1 mm 2 mps 651 mmHg 87%
    21:00 +20°C° 0.1 mm 2 mps 652 mmHg 89%
    22:00 +19°C° 0.1 mm 2 mps 652 mmHg 92%
    23:00 +19°C° 0 mm 2 mps 652 mmHg 93%
    Show more